Regional Weather Roundup
Issued by NWS

Home | Current Version | Previous Version | Graphics & Text | Print | Product List | Glossary On
Versions: 1 2 3 4 5 6 7 8 9 10 11 12 13 14 15 16 17 18 19 20 21 22 23 24 25 26 27 28 29 30 31 32 33 34 35 36 37 38 39 40 41 42 43 44 45 46 47 48 49 50
000
ASUS43 KDTX 230810
RWRMI
MICHIGAN HOURLY REGIONAL WEATHER ROUNDUP
NATIONAL WEATHER SERVICE DETROIT/PONTIAC MI
400 AM EDT THU OCT 23 2014

NOTE: "FAIR" INDICATES FEW OR NO CLOUDS BELOW 12,000 FEET WITH NO
SIGNIFICANT WEATHER AND/OR OBSTRUCTION TO VISIBILITY.

MIZ047>049-052>055-059>063-066>070-074>076-081>083-230900-
SOUTHEAST LOWER MICHIGAN

CITY           SKY/WX    TMP DP  RH WIND       PRES   REMARKS
ADRIAN         CLEAR     33  32  96 N5        30.27F WCI  29
ALMA           FOG       31  30  99 CALM      30.28F VSB 3/4
ANN ARBOR      CLEAR     28  27  96 CALM      30.26F
BAD AXE        MOCLDY    29  29 100 CALM      30.28S FOG
CARO           CLEAR     28  28  97 CALM      30.28S
DETROIT CITY   CLEAR     41  36  82 NW5       30.26F
DETROIT        CLEAR     37  35  92 N3        30.26F
FLINT          CLEAR     30  26  85 CALM      30.28F
GROSSE ILE     CLEAR     39  37  93 NW6       30.24F WCI  35
HILLSDALE      FOG       30  30 100 CALM      30.26S VSB 1/4
HOWELL         CLEAR     31  31 100 CALM      30.26F FOG

CITY           SKY/WX    TMP DP  RH WIND       PRES   REMARKS
JACKSON        FOG       30  28  92 CALM      30.26F VSB 1/4
LAMBERTVILLE   CLEAR     34  32  93 CALM      30.26F FOG
LANSING          N/A     32  30  92 CALM      30.28F
LAPEER         FAIR      30  30  99 CALM      30.28S FOG
MASON          FOG       29  28  99 CALM      30.27F VSB 3/4
MONROE         CLEAR     34  34 100 CALM      30.25S FOG
MT. CLEMENS    CLEAR     37  37  99 NW5       30.23F WCI  34
PONTIAC        CLEAR     36  34  92 N3        30.25F
PORT HOPE        N/A     34  33  96 W5        30.25F WCI  30
PORT HURON     CLEAR     36  36 100 CALM      30.25F
TRI CITIES     CLEAR     34  31  88 CALM      30.28F
TROY           CLEAR     40  37  86 NW3       30.27F
SAGINAW HB     CLEAR     32  32 100 CALM      30.28S
$$
MIZ043>046-050>051-056>058-064>065-071>073-077>080-230900-
SOUTHWEST LOWER MICHIGAN

CITY           SKY/WX    TMP DP  RH WIND       PRES   REMARKS
BATTLE CREEK   MOCLDY    32  30  92 CALM      30.27F FOG
BENTON HARBOR  CLEAR     33  33 100 SE3       30.26F FOG
BIG RAPIDS     FOG       29  29 100 CALM      30.25F VSB 1/4
COLDWATER      FOG       31  31  99 CALM      30.27F VSB 1/2
FREMONT        FOG       32  32 100 E3        30.26F VSB 3/4
HOLLAND        MOCLDY    33  31  92 E3        30.27F FOG
GRAND RAPIDS   PTCLDY    32  29  88 CALM      30.27F
IONIA          FOG       34  34  99 CALM      30.26F VSB 1/4
KALAMAZOO      FOG       30  29  96 CALM      30.27S VSB 1/4
LUDINGTON      CLEAR     34  33  96 SE5       30.25F WCI  30
MARSHALL       FOG       29  29  99 CALM      30.27S VSB 1/2
MOUNT PLEASANT FOG       29  28  97 CALM      30.27F VSB 1/4
MUSKEGON       CLEAR     32  28  85 CALM      30.27F
SOUTH HAVEN    CLEAR     32  31  98 CALM      30.26F FOG
$$
MIZ016>042-230900-
NORTHERN LOWER MICHIGAN

CITY           SKY/WX    TMP DP  RH WIND       PRES   REMARKS
ALPENA         MOCLDY    26  24  92 CALM      30.27F FOG
BEAVER ISLAND  CLEAR     29  29  99 CALM      30.23F
BELLAIRE       CLEAR     28  27  96 CALM      30.26F
CADILLAC       FOG       22  22  98 CALM      30.24F VSB 1
CHARLEVOIX     CLEAR     32  32 100 SE3       30.27F
FRANKFORT      CLEAR     32  30  91 CALM      30.24F
GAYLORD        FOG       28  27  96 CALM      30.25F VSB 1/4
GRAYLING       FOG       25  24  96 CALM      30.26F VSB<1/4
HARBOR SPRINGS CLEAR     31  29  93 CALM      30.25F
HOUGHTON LAKE  FOG       25  24  96 CALM      30.27F VSB 1/4
MANISTEE       CLEAR     28  27  93 E6        30.26S WCI  22
OSCODA         CLEAR     26  25  94 CALM      30.27F
PELLSTON       CLEAR     24  22  91 CALM      30.26F
ROGERS CITY    CLEAR     34  34 100 SW8       30.28F WCI  27
TRAVERSE CITY  CLEAR     33  30  88 CALM      30.24F
$$
MIZ007>008-015-230900-
EASTERN UPPER MICHIGAN

CITY           SKY/WX    TMP DP  RH WIND       PRES   REMARKS
KINROSS        CLEAR     30  28  93 CALM      30.25F
MACKINAC ISLAN CLEAR     39  38  94 SE5       30.25F
NEWBERRY       CLEAR     31  31  99 SE5       30.21F WCI  27
S. S. MARIE    CLEAR     32  30  92 E5        30.24F WCI  27
MUNISING         N/A     38  34  85 S8        30.18F WCI  32
$$
MIZ004>006-011>014-085-230900-
CENTRAL UPPER MICHIGAN

CITY           SKY/WX    TMP DP  RH WIND       PRES   REMARKS
MANISTIQUE     CLEAR     44  38  79 S9        30.21F
ESCANABA       CLEAR     39  39 100 SW3       30.19F
MENOMINEE      CLEAR     39  36  87 CALM      30.19F
SAWYER-GWINN   CLOUDY    37  37  97 S14       30.16F FOG     WCI  29
$$
MIZ001>003-009>011-084-230900-
WESTERN UPPER MICHIGAN

CITY           SKY/WX    TMP DP  RH WIND       PRES   REMARKS
IRON MOUNTAIN  CLOUDY    39  37  92 S7        30.16F FOG     WCI  34
HOUGHTON       CLOUDY    42  35  76 SE5       30.11S
COPPER HARBOR    N/A     41  38  89 SW5       30.12S
IRONWOOD       MOCLDY    48  37  66 S13G22    30.02F
$$

ABBREVIATIONS USED IN REMARKS
   TC - TEMPERATURE IN CELSIUS
  WCI - WIND CHILL INDEX
   HX - HEAT INDEX
  VSB - VISIBILITY




USA.gov is the U.S. government's official web portal to all federal, state and local government web resources and services.